This is the latest recevied weather packets stored in our database for station/object IV3CLI-10. If no packets are shown the sender has not sent any weather packets the latest 10 day(s).
| Time | Temp. | Humidity | Pressure | Rain* | Wind** | Luminosity | Snow |
|---|---|---|---|---|---|---|---|
| 1777186522 | 16.67° C | 100% | 1017 hPa | - | - | - | - |
| 1777185622 | 15.56° C | 100% | 1016.8 hPa | - | - | - | - |
| 1777184721 | 15.56° C | 100% | 1016.7 hPa | - | - | - | - |
| 1777183821 | 14.44° C | 100% | 1016.6 hPa | - | - | - | - |
| 1777182920 | 13.89° C | 100% | 1016.4 hPa | - | - | - | - |
| 1777182020 | 12.78° C | 100% | 1016.3 hPa | - | - | - | - |
| 1777181120 | 11.67° C | 100% | 1016 hPa | - | - | - | - |
| 1777180220 | 10.56° C | 100% | 1015.9 hPa | - | - | - | - |
| 1777179320 | 8.89° C | 100% | 1015.7 hPa | - | - | - | - |
| 1777178418 | 8.89° C | 100% | 1015.5 hPa | - | - | - | - |
| 1777177518 | 8.33° C | 100% | 1015.2 hPa | - | - | - | - |
| 1777176618 | 8.33° C | 100% | 1015.3 hPa | - | - | - | - |
| 1777175718 | 8.33° C | 100% | 1015.2 hPa | - | - | - | - |
| 1777174818 | 8.33° C | 100% | 1015.4 hPa | - | - | - | - |
| 1777173917 | 8.33° C | 100% | 1015.2 hPa | - | - | - | - |
| 1777173017 | 8.33° C | 100% | 1014.9 hPa | - | - | - | - |
| 1777172117 | 8.33° C | 100% | 1014.9 hPa | - | - | - | - |
| 1777171217 | 8.33° C | 100% | 1014.8 hPa | - | - | - | - |
| 1777170317 | 8.33° C | 100% | 1014.8 hPa | - | - | - | - |
| 1777169416 | 8.33° C | 100% | 1015 hPa | - | - | - | - |
| 1777168516 | 8.89° C | 100% | 1015.2 hPa | - | - | - | - |
| 1777167616 | 9.44° C | 100% | 1015.1 hPa | - | - | - | - |
| 1777166716 | 9.44° C | 100% | 1015.1 hPa | - | - | - | - |
| 1777165816 | 9.44° C | 100% | 1015.1 hPa | - | - | - | - |
| 1777164916 | 10° C | 100% | 1015.1 hPa | - | - | - | - |
* Rain since midnight (hover to see other rain measurements)
** Current wind speed in m/s (hover to see current wind gust speed)